{"data":{"norad_id":65029,"intl_designator":"2025-161Q","name":"STARLINK-34731","alt_names":[],"object_type":"PAYLOAD","status":"ACTIVE","operator":null,"country":"US","launch_date":"2025-07-30","launch_site_code":"AFWTR","launch_vehicle":null,"mission":null,"orbit_class":"UNKNOWN","rcs_meters":null,"size_class":null,"mass_kg":null,"dimensions":null,"purposes":["comms"],"wikipedia_slug":null,"has_3d_model":false,"image_url":null,"decayed_at":null,"tle_current":{"epoch":"2026-09-19T23:50:52.723392Z","epoch_age_seconds":168043,"freshness":"FRESH","line1":"1 65029U 25161Q   26262.99366578  .00018006  00000+0  54263-3 0  9995","line2":"2 65029  53.1557 107.7821 0001568  87.2703 272.8479 15.34407444 65133","mean_motion":15.34407444,"eccentricity":0.0001568,"inclination_deg":53.1557,"raan_deg":107.7821,"arg_perigee_deg":87.2703,"mean_anomaly_deg":272.8479,"bstar":0.00054263,"rev_number":6513,"period_min":93.847302789806,"perigee_km":461.60847487934,"apogee_km":463.75375544026,"semimajor_km":6840.8181151598,"source":"CELESTRAK","updated_at":"2026-09-21T09:00:35.494467Z"}}}